TimeCST,TemperatureF,Dew PointF,Humidity,Sea Level PressureIn,VisibilityMPH,Wind Direction,Wind SpeedMPH,Gust SpeedMPH,PrecipitationIn,Events,Conditions,WindDirDegrees,DateUTC
12:04 AM,42.8,42.8,100,30.20,1.8,Calm,Calm,-,N/A,,Clear,0,2012-11-21 06:04:00
12:11 AM,44.6,42.8,93,30.20,2.0,Calm,Calm,-,N/A,,Clear,0,2012-11-21 06:11:00
12:33 AM,42.8,41.0,93,30.21,2.0,Calm,Calm,-,N/A,,Clear,0,2012-11-21 06:33:00
12:41 AM,39.2,39.2,100,30.21,1.8,Calm,Calm,-,N/A,,Clear,0,2012-11-21 06:41:00
12:45 AM,39.2,37.4,93,30.21,0.8,Calm,Calm,-,N/A,,Mist,0,2012-11-21 06:45:00
12:53 AM,41.0,39.0,93,30.21,0.5,Calm,Calm,-,N/A,Fog,Fog,0,2012-11-21 06:53:00
12:59 AM,39.2,39.2,100,30.21,1.2,Calm,Calm,-,N/A,,Partly Cloudy,0,2012-11-21 06:59:00
1:10 AM,39.2,39.2,100,30.21,1.0,Calm,Calm,-,N/A,,Mist,0,2012-11-21 07:10:00
1:20 AM,39.2,37.4,93,30.21,1.2,Calm,Calm,-,N/A,,Partly Cloudy,0,2012-11-21 07:20:00
1:22 AM,39.2,37.4,93,30.21,0.8,Calm,Calm,-,N/A,,Mist,0,2012-11-21 07:22:00
1:36 AM,39.2,37.4,93,30.21,0.2,Calm,Calm,-,N/A,Fog,Fog,0,2012-11-21 07:36:00
1:53 AM,37.9,37.9,100,30.21,0.2,Calm,Calm,-,N/A,Fog,Fog,0,2012-11-21 07:53:00
2:16 AM,37.4,35.6,93,30.22,0.5,Calm,Calm,-,N/A,Fog,Fog,0,2012-11-21 08:16:00
2:24 AM,37.4,37.4,100,30.22,0.2,Calm,Calm,-,N/A,Fog,Fog,0,2012-11-21 08:24:00
2:42 AM,37.4,37.4,100,30.22,0.2,North,3.5,-,N/A,Fog,Fog,10,2012-11-21 08:42:00
2:53 AM,39.9,39.0,97,30.23,0.2,Calm,Calm,-,N/A,Fog,Fog,0,2012-11-21 08:53:00
3:53 AM,43.0,42.1,97,30.23,0.2,NNE,3.5,-,N/A,Fog,Fog,20,2012-11-21 09:53:00
4:53 AM,43.0,42.1,97,30.24,0.2,Calm,Calm,-,N/A,Fog,Fog,0,2012-11-21 10:53:00
6:53 AM,42.1,42.1,100,30.27,0.2,Calm,Calm,-,N/A,Fog,Fog,0,2012-11-21 12:53:00
7:53 AM,42.1,41.0,96,30.29,0.2,Calm,Calm,-,N/A,Fog,Fog,0,2012-11-21 13:53:00
8:53 AM,43.0,42.1,97,30.29,0.2,Calm,Calm,-,N/A,Fog,Fog,0,2012-11-21 14:53:00
9:53 AM,44.1,44.1,100,30.30,0.2,Calm,Calm,-,N/A,Fog,Fog,0,2012-11-21 15:53:00
10:53 AM,46.0,45.0,96,30.30,0.2,Calm,Calm,-,N/A,Fog,Fog,0,2012-11-21 16:53:00
11:53 AM,48.0,46.9,96,30.27,0.5,Calm,Calm,-,N/A,Fog,Fog,0,2012-11-21 17:53:00
12:11 PM,48.2,48.2,100,30.26,1.0,South,3.5,-,N/A,,Overcast,170,2012-11-21 18:11:00
1:11 PM,53.6,50.0,88,30.23,3.0,Calm,Calm,-,N/A,,Partly Cloudy,0,2012-11-21 19:11:00
1:53 PM,59.0,50.0,72,30.22,6.0,Calm,Calm,-,N/A,,Haze,0,2012-11-21 19:53:00
2:53 PM,62.1,48.9,62,30.20,7.0,Calm,Calm,-,N/A,,Clear,0,2012-11-21 20:53:00
3:53 PM,59.0,50.0,72,30.19,6.0,SE,8.1,-,N/A,,Haze,130,2012-11-21 21:53:00
4:53 PM,54.0,48.0,80,30.18,4.0,SSE,5.8,-,N/A,,Haze,150,2012-11-21 22:53:00
5:53 PM,52.0,46.9,83,30.18,6.0,SSE,5.8,-,N/A,,Haze,150,2012-11-21 23:53:00
6:53 PM,52.0,46.0,80,30.17,6.0,SSE,6.9,-,N/A,,Haze,150,2012-11-22 00:53:00
7:53 PM,51.1,45.0,80,30.17,6.0,SSE,3.5,-,N/A,,Haze,160,2012-11-22 01:53:00
8:53 PM,50.0,44.1,80,30.17,7.0,South,3.5,-,N/A,,Clear,170,2012-11-22 02:53:00
10:53 PM,46.0,43.0,89,30.17,5.0,SSE,3.5,-,N/A,,Clear,160,2012-11-22 04:53:00
11:53 PM,46.0,43.0,89,30.16,5.0,South,3.5,-,N/A,,Clear,170,2012-11-22 05:53:00